Lapse_Rate
5.7 5.8 5.9 6.0 6.0 6.1 6.2 6.3 6.4 6.5 6.6 6.6 6.5 6.5 6.6 6.5 6.5 6.4 6.5 6.7 6.9 7.3 7.8 8.3 8.7 8.8 8.6 8.8 8.7 8.2 8.1 8.6 8.2 8.1 7.9 8.0 8.2 7.5 7.2 6.8 6.3 6.4 6.4 6.2 6.8
5.7 5.8 6.0 6.0 6.0 6.1 6.2 6.2 6.3 6.5 6.6 6.7 6.7 6.7 6.7 6.7 6.7 6.6 6.3 6.6 6.9 7.1 7.5 8.0 8.4 8.7 8.7 8.6 8.6 8.9 8.7 8.8 8.5 8.2 8.1 7.9 7.7 7.3 7.6 6.8 6.6 6.8 6.6 5.7 6.4
5.7 5.8 5.9 6.1 6.1 6.1 6.2 6.2 6.3 6.4 6.6 6.6 6.6 6.7 6.8 6.9 6.9 6.7 6.3 6.5 6.6 6.9 7.4 7.8 8.3 8.7 8.4 8.4 9.0 8.9 9.3 8.9 8.8 8.2 8.0 7.9 7.8 7.4 7.5 7.3 7.4 7.3 6.8 6.2 5.7
5.6 5.8 5.9 6.0 6.2 6.2 6.3 6.3 6.3 6.3 6.5 6.6 6.6 6.7 6.8 6.9 6.8 6.7 6.5 6.4 6.6 6.8 7.3 7.8 8.4 8.5 8.4 8.6 9.0 8.9 9.1 9.3 9.1 8.3 8.2 8.4 8.2 8.2 7.6 7.3 7.1 7.0 6.8 6.4 5.4
5.5 5.6 5.9 6.0 6.0 6.2 6.3 6.4 6.4 6.3 6.5 6.5 6.6 6.7 6.8 6.8 6.7 6.7 6.7 6.4 6.6 6.8 7.0 7.7 8.3 8.3 8.4 8.1 8.8 9.0 9.1 9.2 9.1 8.5 8.7 8.4 8.4 8.4 7.8 7.3 7.3 7.2 6.5 6.4 5.9
5.5 5.6 5.6 5.8 5.9 6.1 6.1 6.2 6.3 6.4 6.4 6.4 6.5 6.7 6.8 6.6 6.8 6.6 6.7 6.7 6.6 6.8 6.9 7.4 8.1 8.0 8.2 8.4 8.2 8.9 9.0 9.4 8.8 8.6 8.4 8.4 8.3 8.4 8.0 7.5 7.3 7.4 7.0 6.5 6.1
5.5 5.6 5.7 5.8 5.7 5.8 5.9 6.1 6.2 6.3 6.4 6.4 6.5 6.7 6.8 6.4 6.8 6.9 6.9 6.6 6.7 6.7 6.9 7.1 7.2 7.8 7.7 7.5 8.1 9.0 9.3 9.3 9.0 8.6 8.6 8.7 8.5 8.4 7.9 7.8 7.6 7.6 7.4 7.0 6.4
5.4 5.5 5.7 5.8 5.9 5.9 5.8 5.9 6.0 6.1 6.2 6.3 6.5 6.8 6.8 6.6 7.0 7.0 6.9 6.8 7.0 6.8 6.9 7.0 7.0 7.1 7.5 7.5 8.4 9.1 9.3 9.1 8.8 8.5 8.1 8.3 8.6 8.8 8.7 8.4 7.9 7.6 7.3 7.0 6.9
5.5 5.6 5.7 5.7 5.9 5.9 5.9 5.8 5.9 6.0 6.1 6.2 6.6 6.7 6.8 7.0 7.0 6.7 7.2 7.1 6.9 7.0 6.9 6.9 6.8 7.0 7.3 7.9 8.0 8.9 8.9 9.2 9.2 8.3 8.8 7.8 7.9 8.7 9.0 8.5 7.8 7.8 7.4 7.0 6.6
5.5 5.7 5.7 5.8 5.9 6.0 5.9 5.8 5.8 5.9 6.1 6.2 6.5 6.6 6.6 6.3 6.7 6.9 7.2 7.1 7.1 7.1 6.9 7.0 6.9 7.1 7.3 7.7 8.1 8.6 8.7 9.1 8.9 8.3 8.1 8.1 8.1 8.5 8.5 8.4 8.4 8.3 7.7 7.1 6.6
5.6 5.7 5.8 5.9 6.0 6.0 5.9 5.9 5.9 6.1 6.2 6.1 6.7 6.3 6.4 6.5 6.7 6.8 6.9 7.2 6.9 6.8 7.0 7.0 7.0 7.0 7.6 8.0 8.5 8.1 8.4 8.8 8.8 8.7 8.3 8.5 8.8 8.4 8.6 8.2 8.2 8.5 7.7 7.3 7.2
5.8 5.8 5.8 5.9 6.0 6.1 6.1 6.0 5.9 6.1 6.6 6.4 6.7 6.4 6.5 6.7 6.7 6.4 6.7 7.0 6.9 7.0 7.0 7.1 7.1 7.4 7.5 8.2 8.6 8.4 7.9 8.8 9.0 8.7 8.6 8.5 8.3 8.8 8.5 8.7 8.4 8.0 8.0 7.2 7.2
5.9 5.9 5.9 5.9 5.9 6.0 5.9 5.9 5.9 6.1 6.7 6.8 6.8 6.5 6.9 7.0 7.2 6.9 6.9 7.1 7.0 7.0 7.0 7.0 7.8 7.7 7.5 8.3 8.7 8.8 8.3 9.2 9.3 9.1 9.3 9.0 8.6 9.0 8.6 8.4 8.3 8.0 8.2 8.1 7.2
6.0 6.1 6.0 5.9 6.0 6.2 6.2 6.3 6.2 6.6 6.7 7.0 7.2 7.0 6.8 6.9 7.3 7.3 7.5 7.2 7.1 7.2 7.3 7.2 7.6 7.7 7.8 7.9 8.4 8.5 9.3 9.5 9.7 9.3 9.1 9.2 8.7 9.0 8.7 8.5 8.2 8.1 8.5 8.3 7.6
6.1 6.2 6.0 6.0 6.0 6.2 6.1 6.3 6.8 6.6 6.2 7.3 7.2 7.1 6.8 7.2 7.3 7.4 7.7 7.3 7.6 7.6 7.4 7.6 7.8 7.9 7.9 7.9 8.2 8.4 9.3 9.3 9.4 9.1 9.1 9.2 9.1 9.0 8.9 8.4 8.2 8.3 8.6 8.4 7.9
6.2 6.2 6.3 6.2 6.2 6.0 6.1 6.6 6.8 6.6 6.9 7.4 7.3 7.4 7.2 7.3 7.6 7.7 7.8 7.6 7.7 7.6 7.5 7.6 7.8 8.0 8.1 8.4 8.3 8.5 9.1 9.1 8.9 9.2 8.7 9.3 9.2 9.2 9.0 9.0 8.4 8.4 9.0 8.5 8.1
6.3 6.3 6.4 6.3 6.4 6.3 6.5 6.8 6.7 6.9 7.6 7.9 7.6 7.3 7.5 7.9 8.1 8.2 8.0 7.8 7.5 7.6 8.1 8.2 8.5 8.6 8.5 8.7 8.9 9.0 8.5 8.6 7.9 7.6 7.1 9.3 9.3 9.5 9.2 8.9 8.8 8.8 8.2 7.8 7.9
6.4 6.5 6.5 6.5 6.5 6.6 6.7 7.1 7.4 7.7 7.3 8.2 8.5 7.7 7.8 8.1 8.2 8.0 8.1 7.7 7.8 7.9 7.8 7.9 8.3 9.1 9.1 9.0 9.0 8.8 8.8 8.4 7.2 6.5 7.7 9.4 9.3 9.6 9.2 8.8 8.4 8.7 8.1 7.7 7.5
6.4 6.5 6.5 6.6 6.7 6.6 6.9 7.0 7.7 7.5 7.7 8.0 8.6 8.6 8.4 8.2 8.2 8.1 8.2 8.2 8.1 8.0 8.0 8.3 8.6 9.0 9.2 9.3 9.2 8.9 8.5 8.9 8.8 8.5 7.9 8.8 8.9 9.0 8.9 8.6 8.4 8.3 8.2 8.7 8.3
6.4 6.4 6.4 6.4 6.7 6.9 6.9 7.1 7.5 7.6 7.5 8.2 8.3 8.4 9.1 9.0 8.5 8.5 8.7 8.9 8.7 8.6 8.6 8.9 9.0 8.9 9.2 9.2 9.1 8.8 8.9 8.8 8.8 7.8 8.2 8.4 8.6 8.9 9.0 8.7 8.4 8.7 8.8 8.3 8.8
6.3 6.2 5.8 6.2 6.6 6.9 7.0 7.4 7.4 7.5 7.7 7.8 8.6 8.6 8.8 9.0 9.3 9.2 9.1 9.2 9.1 9.1 8.9 9.1 9.2 9.5 9.0 9.1 9.5 9.3 9.0 8.8 8.9 9.0 7.5 6.6 8.7 9.3 9.3 9.1 8.8 8.8 8.5 8.7 9.0
5.9 5.9 5.8 6.2 6.2 6.6 7.0 6.8 6.9 7.5 7.9 7.7 8.5 8.7 8.9 9.0 9.3 9.5 9.5 9.5 9.6 9.1 8.9 9.1 9.1 9.4 9.2 9.4 9.4 9.5 9.3 9.3 8.9 9.1 9.3 8.8 8.9 9.1 8.8 8.9 8.6 8.7 9.0 9.1 8.7
5.8 5.7 5.7 5.9 6.2 6.5 6.5 7.0 6.9 7.4 7.5 7.7 8.0 8.4 8.8 8.8 9.2 9.3 9.5 9.3 9.5 9.6 9.4 9.2 9.0 9.1 9.1 9.4 9.4 9.5 9.6 9.3 9.3 9.4 9.4 8.4 9.1 9.1 9.0 9.2 9.2 8.8 8.9 8.8 9.0
5.5 5.3 5.2 5.6 5.9 6.2 6.5 6.9 6.9 7.3 7.6 7.7 7.5 8.2 8.6 8.9 8.9 9.0 9.4 9.5 9.5 9.5 9.5 9.1 9.1 8.9 8.8 9.1 9.2 9.4 9.7 9.7 9.5 9.3 8.8 9.1 9.1 9.1 9.2 9.0 9.2 9.0 8.9 8.7 9.0
5.4 5.5 5.5 5.7 5.8 5.9 6.0 6.3 6.7 7.0 7.4 7.5 7.9 7.9 8.3 8.6 8.6 8.7 9.1 9.2 9.4 9.3 9.0 8.7 8.8 8.9 9.0 8.9 9.0 9.2 9.3 9.4 9.5 9.1 8.4 8.8 9.0 9.2 9.2 8.9 9.1 8.9 9.0 8.8 8.7
5.8 5.8 5.9 6.0 6.1 6.3 6.5 6.5 6.7 7.1 7.1 7.2 7.6 8.1 8.0 8.2 8.2 8.5 8.8 9.0 8.9 8.7 8.7 8.6 8.6 9.0 8.9 8.9 9.0 9.1 9.1 9.2 9.3 9.1 8.8 8.6 8.9 9.2 8.9 9.1 9.0 9.3 9.2 8.9 8.6
5.7 5.7 5.9 6.0 6.1 6.5 6.2 6.5 6.8 6.8 6.8 7.0 7.2 7.4 7.6 7.9 8.1 8.2 8.5 8.7 8.7 8.6 8.5 8.7 8.5 8.7 8.7 8.8 8.9 9.1 8.9 9.1 8.9 9.1 8.8 8.6 8.3 8.7 8.6 8.8 9.2 9.2 9.2 9.0 8.9
Wind_Speed
18 19 20 21 22 23 23 23 24 24 22 23 23 22 22 23 22 2 6 9 5 12 5 3 8 8 12 5 8 6 1 2 5 10 6 7 11 13 11 14 10 10 14 19 22
19 19 20 21 22 23 23 24 24 24 24 23 23 22 20 21 4 6 11 14 7 10 1 5 7 9 3 5 6 7 5 7 5 7 9 12 13 10 9 16 9 16 13 15 24
19 20 21 21 23 23 23 24 24 25 24 23 23 22 20 15 4 7 4 17 10 6 0 2 3 4 3 4 3 3 6 6 4 6 11 13 9 4 14 9 20 21 19 14 21
20 20 21 22 23 24 24 24 24 24 24 22 22 22 22 2 1 4 1 8 5 3 2 4 5 7 5 6 6 5 4 7 5 6 7 8 6 5 5 8 18 22 20 14 10
20 21 21 22 23 24 24 25 25 23 22 21 19 17 4 4 8 6 7 3 3 3 3 2 3 1 4 6 14 5 4 8 8 11 8 11 8 7 13 19 19 18 15 12 8
21 21 22 23 24 25 24 24 25 24 22 18 16 12 1 3 6 6 8 5 3 3 3 4 4 4 6 6 7 11 9 9 8 11 3 11 3 5 13 20 21 19 14 9 9
22 22 22 24 25 26 26 26 27 26 21 16 11 4 1 13 3 7 2 5 5 6 5 5 6 3 6 14 10 10 6 4 8 4 4 12 7 5 10 19 20 19 16 12 10
23 24 23 24 25 26 27 28 29 27 20 12 6 2 7 6 6 8 4 8 6 5 6 10 5 5 4 6 7 4 6 4 4 7 1 5 4 7 7 19 17 17 16 15 13
22 23 24 24 25 26 28 31 30 21 9 4 0 1 10 13 1 8 8 5 5 5 5 8 1 4 6 3 5 7 2 2 2 3 3 6 6 9 10 18 15 15 16 15 13
23 24 25 26 25 26 30 30 14 8 3 5 5 4 6 4 5 5 4 5 4 5 5 3 5 2 5 5 4 2 2 4 1 7 3 4 9 7 8 16 16 14 13 14 13
24 25 26 27 26 23 14 4 3 3 1 8 6 5 6 4 5 4 5 3 3 4 2 4 4 3 8 8 7 3 4 3 2 9 10 9 11 11 5 6 11 12 9 13 14
24 25 27 29 28 27 3 0 6 1 7 11 15 11 12 2 6 3 6 4 5 4 0 4 3 10 9 9 9 11 6 5 4 9 6 12 20 15 12 6 9 8 7 10 8
24 26 28 31 36 1 4 6 9 7 2 8 7 6 7 8 8 5 7 6 3 3 3 7 11 9 8 11 10 13 5 7 9 12 11 11 6 6 7 5 7 6 10 11 12
24 25 26 35 2 5 5 5 7 4 4 6 4 7 4 5 6 9 10 7 3 8 6 6 13 8 8 9 7 9 13 7 10 6 6 5 5 2 4 2 4 9 16 15 12
24 24 23 15 5 3 6 12 11 4 3 4 3 4 6 8 3 2 7 2 9 6 6 10 6 6 9 15 9 14 11 3 4 6 3 5 4 5 2 7 10 13 18 9 6
25 22 19 1 1 7 14 12 4 5 2 3 4 5 6 3 5 7 4 2 3 4 3 10 4 8 9 5 5 4 4 8 5 4 4 3 5 5 6 9 11 17 6 7 6
29 23 9 5 5 5 7 4 4 2 4 5 5 5 4 4 4 7 7 5 5 2 5 7 9 5 4 3 6 8 7 4 5 4 7 4 2 10 14 10 12 14 11 4 10
30 34 5 6 12 4 3 4 2 5 7 4 6 5 6 7 6 3 5 3 3 5 3 2 8 5 4 9 7 4 8 6 5 3 6 4 5 6 8 3 2 7 11 8 2
31 2 2 5 16 2 5 2 6 3 3 3 4 5 4 5 4 4 7 9 9 8 7 5 6 7 11 6 10 3 2 7 4 2 4 3 6 7 3 3 2 5 15 12 14
3 4 4 6 16 4 4 4 5 4 3 4 2 3 4 5 6 7 7 6 5 12 6 4 3 2 5 4 1 6 5 3 4 1 3 5 3 4 6 5 7 7 8 11 13
2 4 3 14 4 5 2 6 6 8 5 4 0 2 4 3 11 8 9 5 12 2 11 5 4 8 2 3 7 2 1 5 5 5 4 1 5 7 10 8 9 9 13 16 18
4 2 2 5 3 0 2 5 6 9 6 3 0 3 2 5 2 5 9 10 9 9 7 4 5 1 7 9 8 6 8 6 5 5 2 4 5 2 9 8 9 14 10 6 6
3 3 1 5 1 2 6 7 5 8 4 4 4 2 3 4 5 1 3 3 7 5 7 3 2 3 10 12 6 3 5 5 4 3 2 5 5 4 7 7 9 13 6 4 3
2 3 4 3 2 1 4 6 5 7 3 1 2 3 7 6 6 6 2 2 4 4 6 8 4 7 5 8 5 6 3 1 6 4 2 5 5 6 1 8 2 7 10 12 17
2 3 1 3 4 4 3 6 8 6 4 2 6 5 2 4 5 7 5 6 5 1 4 5 3 4 4 5 3 1 4 10 7 2 5 7 4 5 9 8 11 8 9 12 10
2 3 4 4 4 6 1 4 5 5 1 5 3 5 8 5 4 1 4 4 3 5 3 3 0 2 5 7 9 5 7 8 5 2 7 10 5 9 4 6 3 7 9 8 15
3 3 3 5 6 5 4 8 15 2 0 5 3 6 8 4 3 4 5 3 2 3 2 3 3 3 3 5 6 7 7 9 7 10 2 9 5 15 11 14 11 10 8 4 7
Wind_Direction
347 345 344 341 339 337 334 334 332 332 332 329 327 331 332 330 320 268 256 224 193 140 160 218 193 201 204 232 164 156 343 219 157 130 180 131 120 159 144 136 161 192 144 150 136
344 343 341 338 336 333 331 330 329 329 331 330 327 330 330 331 321 259 244 250 191 152 6 353 331 332 299 259 153 170 184 168 167 148 155 150 141 140 139 153 113 112 135 141 143
342 339 337 336 333 331 330 328 327 327 329 330 327 328 325 324 324 254 300 228 177 157 195 273 292 335 279 312 305 200 159 172 161 167 144 147 146 85 120 142 145 144 157 166 144
337 337 336 334 332 330 327 325 323 324 325 327 327 327 320 290 248 289 122 143 131 97 312 331 4 350 327 340 307 51 212 142 139 117 99 120 130 128 141 157 154 152 160 167 149
336 335 334 333 331 328 325 321 319 320 320 323 326 332 349 6 251 253 161 165 126 142 210 281 335 324 299 321 322 326 248 127 136 89 94 107 85 99 120 134 141 146 157 168 176
337 334 333 331 329 327 323 318 314 313 314 317 320 326 328 284 254 215 154 142 228 187 232 195 223 208 282 291 310 291 216 153 109 102 144 111 38 95 139 141 147 154 164 182 188
335 333 330 328 326 324 320 314 310 308 308 307 308 290 288 237 259 21 253 210 184 182 220 243 235 111 327 305 302 341 351 77 28 68 110 115 29 130 144 155 157 161 167 180 205
332 330 327 325 323 320 316 310 304 302 300 286 291 244 250 257 279 289 237 286 279 235 195 248 243 229 198 261 330 334 41 73 309 87 77 344 228 247 179 159 164 167 173 184 194
326 324 322 321 320 318 314 307 301 293 262 241 117 170 269 306 240 242 182 222 281 296 265 258 185 213 353 27 4 21 103 107 308 61 83 82 278 241 203 163 166 176 178 188 199
324 323 321 320 320 321 317 303 288 303 182 186 263 345 281 244 241 199 208 194 244 339 351 49 54 54 359 64 255 212 241 199 104 357 12 347 231 276 193 161 177 184 184 186 196
324 322 321 320 319 322 336 355 17 38 220 199 200 246 282 285 259 183 192 135 53 58 213 275 75 212 249 249 237 216 257 226 190 90 352 266 250 233 169 176 176 190 189 193 194
324 322 320 319 317 318 271 289 222 204 299 229 239 242 264 327 307 285 92 144 118 214 87 350 223 230 240 260 266 276 191 233 190 198 149 261 276 253 183 189 157 148 192 195 184
323 323 323 320 317 11 194 244 282 17 339 289 207 215 232 143 220 239 132 160 156 219 178 180 234 225 231 270 276 276 194 196 208 182 181 218 245 219 47 80 143 159 188 173 191
322 323 327 328 347 326 264 287 319 192 46 277 192 250 205 174 293 217 177 145 206 201 204 216 248 226 232 243 220 259 261 201 235 143 225 170 262 51 81 36 242 193 215 181 168
318 320 326 327 294 309 294 331 325 58 62 162 188 187 167 167 235 207 160 76 192 208 104 239 215 208 232 239 227 241 241 186 135 173 166 194 91 275 205 179 231 227 233 194 172
312 314 328 90 251 246 314 306 44 48 266 212 150 146 107 230 272 344 143 120 172 199 240 236 235 170 212 250 222 243 46 36 54 52 348 233 121 263 203 200 207 231 210 216 171
310 305 297 291 232 358 320 35 50 131 326 175 175 158 142 207 267 173 155 203 165 115 292 335 297 281 194 278 338 68 58 360 354 7 233 67 84 235 210 222 211 204 62 193 148
312 311 242 206 242 303 25 59 111 245 248 242 136 120 167 171 247 214 119 189 246 110 67 161 319 205 207 175 192 208 140 150 205 219 270 332 232 258 243 35 97 92 112 104 105
319 305 243 245 207 77 72 88 212 251 328 45 38 120 236 234 163 163 192 194 215 171 172 185 270 309 165 163 133 265 126 183 143 82 43 278 307 321 68 86 78 113 118 170 194
324 335 268 129 146 85 76 246 251 255 320 58 122 147 190 257 161 177 183 212 218 193 158 234 300 291 311 63 334 144 172 53 12 25 311 300 254 236 271 227 194 192 173 184 180
352 10 263 123 106 55 164 240 281 286 350 60 124 13 255 259 185 191 204 276 198 247 148 176 115 296 20 180 196 316 341 63 115 137 178 220 274 217 212 219 167 188 215 186 208
338 13 191 118 56 185 203 221 318 316 317 308 271 215 288 297 278 214 199 212 153 166 129 190 136 204 245 259 199 169 200 135 119 247 236 146 264 359 188 217 161 195 228 278 10
344 276 346 98 120 293 286 282 253 277 258 346 308 340 327 336 20 351 106 328 125 95 154 179 34 32 345 348 21 170 198 150 124 102 200 127 251 234 202 158 195 171 154 164 215
353 1 325 45 184 267 318 277 310 289 240 152 311 7 26 357 17 340 14 16 74 96 121 78 107 138 182 223 247 302 344 208 104 75 210 222 208 270 194 165 121 149 167 192 199
180 266 210 298 308 276 236 277 306 331 273 73 5 350 32 356 27 8 349 20 11 144 97 100 124 146 250 257 346 145 57 97 84 154 95 288 261 277 216 188 171 193 179 191 236
38 34 342 271 297 314 69 320 232 298 301 293 169 287 67 89 138 312 353 36 53 329 5 22 217 112 330 352 11 19 94 88 65 96 112 41 13 322 332 337 189 184 212 230 251
309 331 106 288 343 14 340 332 304 334 184 53 338 96 64 1 313 241 217 211 169 6 11 55 96 78 288 352 30 22 317 79 76 27 3 45 317 10 7 6 0 341 318 204 166